EUTELSAT 7A

Last updated on Fri Dec 19 2025 00:02:48 GMT+0000 (Coordinated Universal Time)

1 28187U 04008A 25352.52675464 .00000123 00000+0 00000+0 0 9998 2 28187 5.3719 74.1867 0000859 183.6326 240.0025 1.00269880 79549
UTC large
Height (km)
Speed (km/s)
/
Latitude / Longitude
Inclination (degrees)
Orbital Period (minutes)
Azimuth
Elevation
Range (km)
Doppler Factor

Next 0 passes for location: London (51.5072 / 0.1276)

Sorry there are no passes over London.